{"data":{"norad_id":56319,"intl_designator":"2023-058C","name":"STARLINK-6039","alt_names":[],"object_type":"PAYLOAD","status":"ACTIVE","operator":null,"country":"US","launch_date":"2023-04-27","launch_site_code":"AFWTR","launch_vehicle":null,"mission":null,"orbit_class":"UNKNOWN","rcs_meters":null,"size_class":null,"mass_kg":null,"dimensions":null,"purposes":["comms"],"wikipedia_slug":null,"has_3d_model":false,"image_url":null,"decayed_at":null,"tle_current":{"epoch":"2026-05-24T22:49:44.749632Z","epoch_age_seconds":75416,"freshness":"FRESH","line1":"1 56319U 23058C   26144.95121238 -.00006837  00000+0 -46971-3 0  9995","line2":"2 56319  97.4510 144.9831 0002123  72.1228 288.0230 15.05690984169255","mean_motion":15.05690984,"eccentricity":0.0002123,"inclination_deg":97.451,"raan_deg":144.9831,"arg_perigee_deg":72.1228,"mean_anomaly_deg":288.023,"bstar":-0.00046971,"rev_number":16925,"period_min":95.637153659147,"perigee_km":547.91472951934,"apogee_km":550.85615554844,"semimajor_km":6927.5224425339,"source":"CELESTRAK","updated_at":"2026-05-25T13:38:17.999570Z"}}}